Location: Alma
(38.7220°N, 88.9090°W)
Time: 13:08:47
(UTC-06:00)

Vanguard 2 Rocket - Pass Details

Date: 22 November 2019
Orbit: 554 x 3326 km, 32.9° (Epoch: 14 December)

Event Time Altitude Azimuth Distance (km) Brightness Sun altitude
Rises 04:23:30 0° 267° (W) 3,138 - -27.4°
Reaches altitude 10° 04:25:44 10° 256° (WSW) 2,419 - -27.0°
Exits shadow 04:29:42 30° 211° (SSW) 1,759 8.1 -26.2°
Maximum altitude 04:30:45 31° 194° (SSW) 1,803 8.3 -26.0°
Drops below altitude 10° 04:38:32 10° 136° (SE) 3,842 10.7 -24.5°
Sets 04:43:08 0° 128° (SE) 5,342 11.8 -23.6°
